Temp_Advection
nan nan nan nan nan nan nan nan nan nan nan nan nan nan nan nan nan nan nan nan nan nan nan nan nan nan nan nan nan nan nan nan nan nan nan nan nan nan nan nan nan nan nan nan
nan 0 0 0 0 0 0 -0 -0 0 -0 0 0 -0 0 -0 -0 -0 -0 -0 -0 0 0 -0 -1 -0 -0 0 0 0 0 0 0 0 0 0 -0 0 0 0 0 0 0 nan
nan 0 0 0 -0 -0 -0 -0 0 0 0 -0 -0 -0 0 0 0 -0 -0 -0 0 0 -0 -1 -0 -0 0 0 0 0 0 0 0 0 -0 -0 -0 -0 -0 -0 0 0 -0 nan
nan 0 -0 0 -0 -0 0 0 -0 -0 0 0 -0 0 0 0 0 -0 -0 -0 0 1 -1 0 0 0 -0 -0 0 0 0 0 0 0 0 0 0 -0 0 -0 -0 -0 0 nan
nan 0 -0 -0 -0 0 0 -0 -0 -0 0 0 0 -0 -0 0 -0 -0 -0 0 1 0 -0 0 -0 -0 0 -0 -0 0 0 0 0 0 0 0 1 0 -0 0 0 -0 0 nan
nan -0 -0 -0 0 0 0 -0 -0 0 0 -0 0 -0 0 0 0 0 0 1 1 0 0 -0 -0 0 1 -0 -0 0 0 0 -0 -0 0 0 1 0 -0 0 0 0 -0 nan
nan -0 0 0 -0 -0 -0 -0 0 -0 -0 0 -0 -0 0 0 0 0 -0 0 1 0 1 1 0 1 0 0 -0 -0 1 0 -0 0 0 0 1 1 -0 -0 0 0 0 nan
nan 0 0 0 -0 -0 0 0 0 0 0 -0 -0 -0 0 0 -0 -0 -0 1 0 0 1 1 1 0 0 0 0 0 0 -0 -0 -0 -0 -0 1 1 -0 -0 -0 -0 -0 nan
nan -0 -0 -0 0 0 -0 0 -0 -0 0 -0 -0 -0 0 1 -0 -0 -0 0 0 0 1 1 1 0 0 0 0 0 0 0 0 -0 -0 -0 -0 0 -0 -0 -0 -0 -0 nan
nan -0 -0 0 -0 0 -0 0 0 0 -0 -0 -0 -0 0 -0 -0 -0 -0 -0 -0 0 0 0 0 -0 0 0 0 0 0 0 1 1 0 -0 -0 0 0 0 -0 -0 -0 nan
nan -0 -0 -0 -0 0 0 -0 -0 0 -0 -0 -0 -0 0 0 -0 -0 -0 -0 0 0 0 0 -0 0 0 0 0 0 0 0 0 0 -0 -0 -0 -0 -0 -0 -0 -0 -0 nan
nan 0 0 -0 0 -0 -0 -0 -0 0 -0 0 -0 0 -0 0 1 0 -0 -0 0 0 1 1 0 0 0 0 0 0 0 0 0 0 0 -0 -0 -0 -0 -0 -0 -0 -1 nan
nan 0 -0 0 0 -0 -0 0 0 0 -0 -1 -1 1 -0 0 0 0 -0 -0 0 0 0 0 1 1 0 -0 -0 -0 -0 0 0 0 0 -0 -0 -0 -0 -0 -1 -0 -1 nan
nan -0 0 -0 -0 -0 -0 -0 0 -0 -0 -0 -1 2 -1 -0 -0 -0 -0 -0 -0 0 0 1 0 1 1 0 0 -0 -0 0 0 -0 -0 -0 -0 -0 -0 -0 -0 -0 -0 nan
nan 0 1 -1 0 0 -0 0 -0 -0 -0 -0 0 1 1 -0 -0 -0 -0 -0 -1 -0 -0 1 1 0 0 0 0 0 0 0 -0 -0 -0 -0 -0 -0 -0 -0 -0 -0 -0 nan
nan 0 0 -0 0 0 -0 0 -0 -0 0 0 0 1 0 0 -0 -0 0 -0 -1 -1 -0 -0 0 0 0 0 0 0 -0 -0 -0 -0 -0 -0 -0 -0 -0 -0 -0 -0 -0 nan
nan 0 0 -0 0 0 -0 -0 -0 0 -0 0 -0 1 -1 -0 -1 -1 -1 -0 -0 -0 -0 -0 0 0 0 0 0 0 -0 -0 -0 -0 -0 -0 -0 -0 -0 -0 -0 -0 -0 nan
nan 0 0 0 -0 -0 -0 0 -0 0 0 0 1 0 0 0 -0 -0 -0 -0 -0 -0 -0 -1 -0 0 -0 0 0 0 -0 -0 -0 -0 -0 -0 -0 -0 -0 -0 -0 -0 -0 nan
nan 0 -0 0 -0 0 -0 -0 0 -0 0 1 0 -1 0 -0 -1 -1 0 0 0 0 -1 -1 -1 -0 -0 0 0 0 -0 -0 -0 -0 -0 -0 -0 -0 -0 -0 -0 -0 -0 nan
nan -0 -0 0 -0 -0 -0 0 0 0 0 0 0 -0 -0 -1 -1 -0 0 1 0 -0 -1 0 0 0 0 0 0 0 0 0 -0 -0 -0 -0 0 0 0 -0 -0 -0 -0 nan
nan -0 -0 -0 -0 -0 0 0 -0 -0 1 0 0 -0 -0 0 -0 1 -0 0 -0 -1 0 0 0 0 0 0 0 -0 -0 -0 -0 -0 -0 -0 -0 -0 -0 -0 -0 -0 0 nan
nan -0 0 -0 -0 0 0 1 -0 0 0 1 0 -0 -0 -0 1 1 0 -0 -0 0 0 1 1 1 0 0 0 -0 -0 -0 -0 -0 -0 -0 -0 -0 -0 -0 0 0 0 nan
nan 0 0 -0 0 -0 0 -0 1 1 -0 1 0 0 -0 -2 -2 0 -0 -0 0 1 1 1 1 0 0 0 0 0 0 -0 -0 -0 -0 -0 -0 0 0 0 0 0 -0 nan
nan 0 -0 -0 0 1 -0 1 -0 0 -0 0 1 0 -2 -3 -2 -1 0 0 1 1 0 0 0 -0 -0 -0 -0 0 0 0 0 -0 -0 -0 0 0 0 0 0 -0 -0 nan
nan -0 -0 -0 -0 0 0 0 -1 -0 1 -1 -2 1 2 -3 -4 -1 -1 0 -0 0 -0 0 0 -0 -0 0 0 -0 0 0 -0 -0 -0 -0 0 0 0 -0 -0 0 0 nan
nan nan nan nan nan nan nan nan nan nan nan nan nan nan nan nan nan nan nan nan nan nan nan nan nan nan nan nan nan nan nan nan nan nan nan nan nan nan nan nan nan nan nan nan
Wind_Speed
2 6 8 6 3 4 2 3 5 7 4 10 16 12 13 21 19 17 17 17 17 18 14 13 13 10 13 14 14 14 15 15 16 14 12 13 13 13 8 6 9 10 10 14
5 10 5 8 6 4 1 2 4 6 7 9 3 12 11 19 24 22 19 19 22 17 14 12 17 15 12 14 15 15 13 13 15 15 15 16 15 14 13 11 10 11 12 17
10 4 13 8 8 5 3 3 3 4 2 2 3 4 8 13 16 18 20 20 16 15 13 14 10 7 10 15 15 16 16 14 13 13 14 16 17 19 17 13 10 9 12 13
5 5 9 7 6 5 7 6 4 3 5 4 2 3 3 8 14 17 22 21 17 15 17 18 8 9 8 12 14 13 14 12 10 9 8 10 13 17 11 11 13 13 11 10
5 7 8 11 12 7 5 2 3 2 2 2 5 3 0 2 9 16 22 22 16 16 18 13 15 8 10 7 11 10 13 14 11 9 6 11 11 13 7 9 10 10 8 8
4 1 2 2 7 3 2 3 3 3 2 4 2 6 4 3 2 6 14 17 18 18 22 21 18 16 9 4 2 12 9 11 11 12 6 6 14 13 10 10 10 8 7 8
2 5 1 2 2 4 4 4 3 3 3 1 3 5 8 4 4 6 6 9 19 22 27 24 19 9 2 7 6 7 13 6 2 5 7 11 19 19 14 11 8 6 3 3
9 7 9 7 9 5 5 7 5 5 3 1 2 4 2 2 3 6 4 9 19 19 24 24 20 10 2 4 3 7 8 14 16 17 5 11 16 16 8 6 8 7 7 8
5 7 2 5 6 8 6 5 2 4 1 3 2 4 10 7 2 3 8 13 16 17 17 19 18 12 5 6 10 8 6 8 11 9 4 4 4 2 6 8 9 11 13 13
7 2 2 3 4 4 4 9 4 1 5 5 3 3 6 6 8 5 6 11 12 13 14 13 11 9 7 6 8 8 8 10 14 12 8 5 6 8 10 11 13 15 17 16
8 6 3 4 6 8 4 4 3 3 1 5 5 4 3 4 12 11 10 11 12 12 11 10 12 9 6 8 8 9 13 15 12 8 6 7 6 9 10 12 14 14 14 14
11 10 11 13 1 2 2 2 6 5 5 1 3 4 1 1 10 15 14 13 13 11 12 12 12 9 9 11 11 12 13 10 6 4 7 9 10 12 12 13 13 13 14 15
10 7 7 6 5 3 6 5 6 2 1 7 8 6 3 7 12 12 17 15 12 13 14 15 13 12 13 14 14 14 12 8 6 5 8 11 13 13 11 11 13 14 14 14
18 8 10 10 6 4 7 7 8 11 5 7 11 12 7 11 13 15 16 16 13 14 16 17 17 17 18 17 14 11 8 6 8 9 10 12 11 11 12 13 12 12 14 14
9 11 11 14 13 11 13 9 9 12 11 9 8 11 11 17 19 21 20 17 16 17 17 18 20 19 17 16 13 9 6 3 2 8 10 9 9 10 10 10 11 12 13 13
3 2 6 7 10 10 11 9 10 13 9 11 7 11 4 21 22 22 22 22 21 22 20 19 20 19 17 14 12 10 6 3 6 7 5 6 6 8 10 11 12 13 15 17
3 6 6 6 6 8 8 14 12 8 9 8 10 7 13 19 22 27 26 24 24 24 23 21 19 18 17 15 11 7 3 4 4 3 5 7 8 9 11 12 12 14 15 16
2 3 3 2 9 8 3 1 11 12 5 12 7 6 14 17 21 23 22 24 23 22 22 20 19 19 17 14 9 3 2 4 5 6 7 7 7 7 8 9 11 14 15 18
13 5 3 4 7 2 3 6 9 11 13 15 8 12 17 20 21 17 20 20 22 22 21 20 20 19 17 12 6 2 2 2 2 2 3 5 7 7 8 10 12 12 14 16
9 3 5 4 4 8 6 9 9 3 9 14 15 18 25 27 10 10 24 21 21 22 23 23 22 19 15 11 6 3 2 2 4 6 7 7 7 10 11 11 10 10 11 12
5 3 9 6 4 3 4 8 12 7 6 25 25 29 30 13 4 22 27 22 23 26 25 24 22 19 15 10 6 3 3 5 6 6 7 8 9 10 9 8 8 8 9 10
5 5 3 3 4 7 10 10 10 9 3 24 25 30 26 15 20 31 30 29 31 30 28 26 25 21 15 9 4 4 6 6 6 9 9 7 7 7 5 4 5 7 9 11
4 3 2 6 5 3 22 5 12 8 10 23 29 30 29 27 29 33 34 33 32 31 30 28 23 19 14 8 6 6 7 8 11 9 7 4 3 2 3 3 5 7 12 13
5 5 3 2 6 12 14 20 12 12 12 21 26 37 33 33 33 33 33 34 33 31 31 27 22 17 12 8 7 8 10 12 9 6 5 3 2 2 4 4 6 7 9 10
2 7 3 6 13 10 17 18 13 12 18 23 23 34 36 37 35 37 34 34 32 32 28 24 18 13 10 8 9 11 12 11 7 5 6 4 3 5 7 7 6 7 9 12
7 6 5 4 2 6 4 6 18 16 20 34 33 33 30 35 38 35 34 34 35 32 26 21 15 12 11 11 11 12 13 12 10 10 7 6 6 5 4 6 8 9 11 13
Wind_Direction
140 191 216 162 112 135 181 265 327 285 292 215 226 234 192 193 201 208 207 201 215 225 223 228 226 216 247 249 251 254 259 264 267 272 278 289 300 310 321 304 315 321 327 354
165 214 161 153 161 142 207 337 294 286 326 207 251 234 214 200 207 206 209 210 211 217 224 237 233 225 224 247 251 256 260 268 270 278 284 292 299 309 323 319 309 313 308 323
211 158 160 154 158 178 191 222 296 312 342 114 193 236 209 223 212 209 219 223 225 220 213 230 234 247 259 259 259 259 260 262 273 285 297 308 313 319 323 314 319 318 306 311
222 169 190 185 196 214 274 202 266 301 330 329 324 305 230 232 220 216 220 220 218 208 217 224 241 275 291 251 253 264 277 277 286 302 305 326 327 325 321 316 316 310 321 321
174 177 190 219 232 192 247 170 323 29 225 239 175 256 186 300 236 226 221 220 208 198 216 199 203 237 278 278 241 263 267 272 258 280 302 317 330 337 297 315 313 310 316 312
166 299 200 211 141 187 140 166 87 83 163 223 113 232 267 220 228 257 231 215 194 179 189 200 208 242 271 333 307 250 321 287 277 281 315 322 303 339 313 298 285 281 278 280
163 212 189 185 216 157 187 203 245 242 201 282 52 211 266 214 253 285 300 220 182 182 191 195 207 228 241 293 290 295 249 235 186 306 287 266 280 305 292 291 296 300 286 270
201 209 200 179 223 253 185 222 207 244 225 359 136 235 282 181 343 354 343 169 168 178 190 197 208 225 216 245 181 188 228 246 244 259 284 293 217 272 262 268 281 293 294 298
161 225 243 216 188 196 157 196 98 142 114 233 175 263 259 234 140 59 110 147 166 173 180 194 210 234 217 217 176 204 251 253 219 241 317 121 134 245 307 315 322 320 318 307
190 159 207 143 163 75 246 144 167 207 197 233 190 266 263 182 182 160 154 142 152 161 171 178 190 212 228 206 198 196 189 159 143 140 124 56 2 340 323 315 315 313 312 310
160 219 168 216 197 180 153 175 67 123 269 244 242 229 228 192 172 169 155 147 156 165 169 178 197 207 209 185 187 154 164 159 140 121 65 43 2 333 321 316 317 316 315 318
185 208 223 229 269 354 234 225 215 234 182 219 293 246 80 155 169 154 148 140 137 144 153 161 168 166 173 165 162 162 162 166 138 65 26 5 347 335 331 329 327 334 329 327
174 210 204 202 185 141 222 200 208 181 148 202 221 240 114 141 143 148 147 145 139 139 139 147 152 160 145 136 135 140 142 121 85 38 352 350 340 337 335 336 337 341 348 352
174 189 216 223 224 208 202 198 200 216 208 200 223 239 188 176 159 153 154 148 146 143 141 147 149 142 135 130 120 114 107 71 30 5 342 337 335 339 347 354 358 359 360 357
189 211 202 231 232 215 236 232 197 211 235 221 232 219 240 182 167 164 158 154 148 148 150 151 150 149 145 139 135 133 132 128 309 330 337 337 347 2 5 9 10 13 15 19
184 221 195 240 221 219 239 243 213 227 229 252 256 250 150 161 153 156 161 162 158 157 158 158 155 155 154 154 140 132 112 39 356 349 358 14 24 24 30 40 51 50 49 47
210 172 174 232 193 177 241 235 216 214 220 203 213 227 148 163 165 166 167 168 166 164 163 161 161 159 157 144 137 124 73 3 357 10 47 50 49 51 63 66 57 53 51 50
207 184 193 147 154 222 225 243 222 213 258 200 246 151 170 171 162 167 172 169 171 171 167 163 162 162 156 153 149 140 12 360 26 49 57 52 50 56 83 72 68 68 61 54
215 183 160 192 207 335 205 194 184 189 234 194 182 143 150 144 140 163 182 185 180 176 170 168 169 169 166 166 164 167 318 348 61 55 65 70 63 82 97 95 86 67 53 45
172 231 252 171 199 205 210 188 170 149 251 183 178 161 158 156 162 179 181 178 171 169 173 175 173 173 176 174 176 214 202 167 105 99 90 82 78 101 100 91 71 54 40 33
165 192 221 195 246 255 227 151 145 187 226 178 180 167 165 171 117 157 163 165 170 173 176 175 173 177 178 179 186 141 126 118 117 119 113 101 104 102 93 79 61 41 29 20
209 194 190 165 204 249 161 138 190 211 245 179 173 167 165 137 130 146 157 162 168 170 171 174 174 174 176 173 130 132 138 138 135 126 129 122 105 95 83 56 36 25 16 7
242 234 233 216 213 333 192 285 216 193 180 176 168 165 160 145 146 154 159 162 166 168 168 171 172 170 166 156 142 155 157 149 140 141 142 126 90 66 36 23 28 26 15 13
204 178 223 264 221 237 244 248 271 222 178 176 172 168 163 148 153 157 160 161 163 167 166 167 170 169 169 163 152 155 158 150 149 147 158 140 85 26 360 20 53 38 13 11
5 166 194 264 276 265 261 246 233 212 174 162 164 167 164 156 159 162 160 161 163 164 167 169 169 170 171 172 167 163 166 167 166 155 148 127 90 86 82 75 53 26 2 353
197 191 195 252 339 295 288 324 217 202 173 172 174 175 166 165 164 162 159 164 166 166 165 166 169 176 178 170 168 169 168 166 158 148 146 134 115 95 55 26 11 357 343 328
Height
1496 1496 1500 1500 1500 1501 1504 1508 1510 1501 1497 1501 1500 1501 1504 1508 1514 1517 1520 1521 1523 1523 1523 1525 1526 1526 1530 1533 1537 1539 1542 1544 1545 1546 1548 1549 1551 1552 1553 1551 1550 1550 1548 1543
1496 1497 1496 1498 1501 1502 1505 1511 1508 1500 1497 1498 1501 1501 1502 1503 1506 1511 1514 1515 1515 1518 1523 1523 1520 1523 1524 1529 1533 1536 1539 1541 1544 1545 1547 1549 1550 1552 1552 1551 1548 1546 1543 1542
1492 1492 1495 1496 1503 1504 1506 1508 1507 1506 1499 1498 1499 1499 1500 1498 1504 1508 1509 1510 1516 1519 1521 1520 1522 1525 1526 1528 1530 1533 1536 1538 1541 1544 1546 1548 1549 1550 1552 1551 1546 1543 1540 1539
1492 1491 1493 1495 1498 1497 1504 1498 1501 1499 1500 1509 1500 1509 1500 1496 1498 1502 1504 1507 1513 1516 1518 1519 1524 1525 1525 1524 1526 1530 1533 1535 1538 1541 1542 1544 1546 1546 1549 1549 1547 1541 1539 1538
1488 1490 1491 1493 1492 1493 1496 1496 1499 1498 1501 1504 1506 1510 1490 1499 1496 1495 1497 1502 1510 1513 1517 1519 1519 1518 1521 1522 1522 1527 1530 1533 1535 1537 1540 1541 1542 1543 1545 1548 1547 1544 1538 1537
1485 1487 1487 1486 1489 1491 1491 1494 1500 1504 1503 1513 1510 1506 1491 1493 1492 1490 1493 1501 1508 1510 1512 1513 1517 1519 1519 1521 1521 1523 1527 1532 1534 1533 1536 1536 1540 1540 1543 1545 1545 1543 1539 1537
1489 1487 1486 1486 1489 1490 1490 1492 1511 1516 1515 1512 1511 1511 1487 1486 1489 1492 1496 1499 1504 1507 1509 1513 1515 1518 1518 1521 1523 1525 1526 1530 1533 1530 1531 1531 1537 1538 1541 1540 1540 1538 1536 1534
1493 1500 1484 1481 1483 1486 1487 1485 1504 1531 1519 1512 1510 1506 1483 1486 1490 1493 1493 1495 1502 1505 1507 1511 1515 1517 1520 1521 1524 1526 1528 1530 1526 1526 1524 1526 1527 1539 1539 1538 1538 1536 1533 1532
1493 1493 1480 1479 1478 1480 1490 1493 1486 1503 1515 1512 1505 1496 1482 1486 1491 1494 1495 1498 1500 1503 1506 1510 1513 1515 1519 1521 1524 1524 1525 1528 1526 1526 1522 1528 1529 1536 1536 1536 1535 1533 1531 1529
1479 1491 1480 1476 1478 1481 1478 1482 1495 1498 1519 1520 1506 1507 1489 1487 1488 1492 1495 1498 1500 1503 1506 1510 1512 1515 1518 1519 1520 1523 1523 1528 1526 1527 1526 1528 1530 1532 1534 1534 1531 1530 1528 1526
1475 1480 1484 1479 1476 1477 1484 1484 1492 1487 1495 1500 1506 1495 1471 1478 1481 1487 1494 1497 1499 1502 1505 1508 1510 1513 1515 1516 1518 1520 1524 1527 1528 1527 1525 1527 1529 1531 1532 1531 1528 1526 1524 1522
1469 1472 1485 1479 1471 1475 1474 1474 1475 1486 1502 1499 1492 1485 1476 1478 1480 1484 1492 1497 1501 1503 1505 1507 1510 1512 1514 1517 1518 1520 1524 1527 1527 1525 1526 1526 1527 1528 1528 1526 1524 1522 1521 1519
1466 1473 1486 1482 1477 1477 1474 1473 1473 1477 1480 1495 1490 1480 1478 1479 1481 1485 1490 1496 1500 1502 1505 1506 1510 1512 1514 1517 1518 1520 1523 1524 1524 1524 1525 1524 1525 1525 1525 1523 1521 1518 1517 1515
1458 1463 1468 1479 1472 1464 1473 1473 1474 1471 1481 1476 1474 1464 1476 1477 1480 1484 1488 1493 1498 1501 1504 1507 1510 1513 1515 1517 1518 1520 1521 1522 1522 1524 1525 1524 1524 1523 1521 1518 1516 1516 1513 1512
1456 1460 1463 1458 1457 1461 1460 1464 1471 1473 1464 1470 1457 1467 1452 1467 1471 1479 1485 1492 1496 1500 1505 1508 1510 1513 1516 1517 1518 1520 1523 1524 1526 1525 1524 1524 1522 1520 1519 1517 1516 1514 1513 1510
1457 1460 1464 1459 1457 1461 1461 1457 1460 1461 1465 1466 1464 1463 1457 1465 1473 1479 1484 1489 1493 1498 1503 1508 1510 1513 1516 1517 1518 1520 1522 1524 1524 1525 1524 1522 1521 1519 1518 1515 1516 1516 1515 1513
1456 1456 1462 1461 1456 1461 1469 1454 1454 1453 1453 1450 1464 1444 1456 1464 1468 1474 1480 1485 1490 1496 1500 1505 1510 1513 1516 1517 1519 1521 1523 1524 1524 1524 1522 1520 1519 1518 1517 1517 1518 1519 1518 1516
1455 1457 1458 1459 1461 1477 1441 1442 1440 1446 1446 1446 1450 1448 1453 1460 1468 1474 1480 1484 1490 1495 1499 1503 1508 1512 1515 1517 1519 1521 1522 1522 1522 1522 1520 1520 1520 1519 1520 1520 1521 1522 1521 1517
1451 1452 1459 1459 1457 1452 1444 1442 1441 1443 1437 1441 1444 1451 1456 1463 1469 1476 1480 1484 1488 1492 1497 1502 1507 1512 1514 1517 1519 1521 1522 1522 1522 1522 1521 1521 1520 1520 1521 1522 1522 1522 1520 1517
1451 1450 1446 1461 1456 1461 1430 1427 1434 1436 1445 1436 1441 1446 1451 1457 1461 1464 1475 1481 1486 1491 1495 1500 1505 1511 1514 1516 1519 1520 1521 1521 1521 1520 1521 1522 1522 1523 1523 1522 1522 1522 1521 1520
1450 1451 1448 1447 1447 1436 1424 1428 1432 1452 1439 1427 1433 1440 1447 1449 1451 1457 1471 1480 1485 1489 1494 1500 1505 1510 1514 1516 1518 1519 1519 1520 1521 1522 1523 1525 1525 1525 1524 1524 1524 1524 1523 1521
1439 1442 1443 1449 1451 1449 1425 1430 1432 1418 1419 1422 1430 1436 1445 1447 1452 1459 1469 1475 1482 1487 1493 1500 1504 1509 1513 1515 1516 1518 1519 1521 1522 1523 1526 1528 1527 1525 1526 1526 1525 1524 1523 1521
1442 1433 1432 1432 1428 1422 1417 1416 1414 1413 1415 1420 1425 1433 1437 1442 1452 1459 1467 1474 1481 1487 1493 1500 1504 1508 1510 1513 1515 1517 1518 1521 1523 1525 1527 1527 1527 1527 1527 1526 1525 1524 1522 1520
1434 1437 1434 1432 1415 1419 1417 1416 1415 1415 1414 1421 1424 1427 1436 1439 1451 1460 1467 1473 1480 1487 1494 1499 1504 1507 1509 1512 1515 1518 1520 1522 1525 1526 1527 1527 1527 1527 1526 1525 1524 1523 1522 1521
1431 1432 1429 1427 1417 1416 1411 1412 1414 1413 1414 1421 1430 1432 1435 1440 1451 1457 1466 1474 1481 1488 1494 1499 1503 1505 1508 1510 1514 1517 1520 1523 1526 1526 1527 1527 1527 1526 1525 1524 1524 1523 1522 1520
1428 1422 1422 1415 1415 1414 1412 1410 1412 1414 1414 1414 1417 1437 1440 1442 1447 1457 1465 1473 1480 1486 1492 1498 1502 1505 1507 1510 1513 1516 1519 1522 1522 1524 1528 1528 1527 1527 1525 1524 1523 1521 1520 1518